Location: *
(50.9167°S, 179.4000°W)
Time: 11:27:57
(UTC+00:00)

ATLAS 2AS CENTAUR R/B - Pass Details

Date: 21 June 2024
Orbit: 1019 x 1192 km, 63.7° (Epoch: 21 July)

Event Time Altitude Azimuth Distance (km) Brightness Sun altitude
Exits shadow 18:44:52 11° 222° (SW) 2,979 4.5 -11.3°
Maximum altitude 18:51:50 55° 145° (SE) 1,384 3.4 -10.3°
Drops below altitude 10° 18:59:10 10° 67° (ENE) 3,114 6.8 -9.2°
Sets 19:02:01 0° 63° (ENE) 4,084 8.3 -8.8°
